Year,Month,Day,Hour,Minute,Value (Times are PST for windgust in km/hr)
2015,08,19,00,00,19.30
2015,08,19,00,01,16.10
2015,08,19,00,02,16.10
2015,08,19,00,03,14.50
2015,08,19,00,04,16.10
2015,08,19,00,05,17.70
2015,08,19,00,06,11.30
2015,08,19,00,07,9.60
2015,08,19,00,08,12.90
2015,08,19,00,09,19.30
2015,08,19,00,10,12.90
2015,08,19,00,11,11.30
2015,08,19,00,12,12.90
2015,08,19,00,13,12.90
2015,08,19,00,14,8.10
2015,08,19,00,15,12.90
2015,08,19,00,16,12.90
2015,08,19,00,17,11.30
2015,08,19,00,18,14.50
2015,08,19,00,19,12.90
2015,08,19,00,20,9.60
2015,08,19,00,21,12.90
2015,08,19,00,22,12.90
2015,08,19,00,23,14.50
2015,08,19,00,24,16.10
2015,08,19,00,25,14.50
2015,08,19,00,26,14.50
2015,08,19,00,27,9.60
2015,08,19,00,28,9.60
2015,08,19,00,29,14.50
2015,08,19,00,30,8.10
2015,08,19,00,31,11.30
2015,08,19,00,32,11.30
2015,08,19,00,33,8.10
2015,08,19,00,34,14.50
2015,08,19,00,35,11.30
2015,08,19,00,36,12.90
2015,08,19,00,37,12.90
2015,08,19,00,38,12.90
2015,08,19,00,39,11.30
2015,08,19,00,40,14.50
2015,08,19,00,41,22.50
2015,08,19,00,42,16.10
2015,08,19,00,43,19.30
2015,08,19,00,44,22.50
2015,08,19,00,45,19.30
2015,08,19,00,46,25.70
2015,08,19,00,47,17.70
2015,08,19,00,48,17.70
2015,08,19,00,49,16.10
2015,08,19,00,50,17.70
2015,08,19,00,51,12.90
2015,08,19,00,52,14.50
2015,08,19,00,53,17.70
2015,08,19,00,54,19.30
2015,08,19,00,55,16.10
2015,08,19,00,56,12.90
2015,08,19,00,57,22.50
2015,08,19,00,58,17.70
2015,08,19,00,59,20.90
2015,08,19,01,00,24.20
2015,08,19,01,01,19.30
2015,08,19,01,02,22.50
2015,08,19,01,03,22.50
2015,08,19,01,04,22.50
2015,08,19,01,05,19.30
2015,08,19,01,06,19.30
2015,08,19,01,07,14.50
2015,08,19,01,08,14.50
2015,08,19,01,09,19.30
2015,08,19,01,10,17.70
2015,08,19,01,11,14.50
2015,08,19,01,12,17.70
2015,08,19,01,13,14.50
2015,08,19,01,14,12.90
2015,08,19,01,15,22.50
2015,08,19,01,16,11.30
2015,08,19,01,17,14.50
2015,08,19,01,18,11.30
2015,08,19,01,19,17.70
2015,08,19,01,20,17.70
2015,08,19,01,21,12.90
2015,08,19,01,22,14.50
2015,08,19,01,23,19.30
2015,08,19,01,24,19.30
2015,08,19,01,25,17.70
2015,08,19,01,26,16.10
2015,08,19,01,27,24.20
2015,08,19,01,28,19.30
2015,08,19,01,29,19.30
2015,08,19,01,30,17.70
2015,08,19,01,31,19.30
2015,08,19,01,32,19.30
2015,08,19,01,33,22.50
2015,08,19,01,34,16.10
2015,08,19,01,35,12.90
2015,08,19,01,36,14.50
2015,08,19,01,37,8.10
2015,08,19,01,38,11.30
2015,08,19,01,39,12.90
2015,08,19,01,40,11.30
2015,08,19,01,41,11.30
2015,08,19,01,42,11.30
2015,08,19,01,43,3.20
2015,08,19,01,44,14.50
2015,08,19,01,45,12.90
2015,08,19,01,46,16.10
2015,08,19,01,47,12.90
2015,08,19,01,48,9.60
2015,08,19,01,49,11.30
2015,08,19,01,50,11.30
2015,08,19,01,51,16.10
2015,08,19,01,52,11.30
2015,08,19,01,53,6.40
2015,08,19,01,54,12.90
2015,08,19,01,55,11.30
2015,08,19,01,56,12.90
2015,08,19,01,57,12.90
2015,08,19,01,58,11.30
2015,08,19,01,59,9.60
2015,08,19,02,00,11.30
2015,08,19,02,01,12.90
2015,08,19,02,02,11.30
2015,08,19,02,03,8.10
2015,08,19,02,04,8.10
2015,08,19,02,05,8.10
2015,08,19,02,06,6.40
2015,08,19,02,07,8.10
2015,08,19,02,08,8.10
2015,08,19,02,09,17.70
2015,08,19,02,10,12.90
2015,08,19,02,11,16.10
2015,08,19,02,12,19.30
2015,08,19,02,13,19.30
2015,08,19,02,14,12.90
2015,08,19,02,15,11.30
2015,08,19,02,16,11.30
2015,08,19,02,17,16.10
2015,08,19,02,18,17.70
2015,08,19,02,19,14.50
2015,08,19,02,20,14.50
2015,08,19,02,21,11.30
2015,08,19,02,22,12.90
2015,08,19,02,23,14.50
2015,08,19,02,24,12.90
2015,08,19,02,25,12.90
2015,08,19,02,26,9.60
2015,08,19,02,27,14.50
2015,08,19,02,28,11.30
2015,08,19,02,29,9.60
2015,08,19,02,30,11.30
2015,08,19,02,31,8.10
2015,08,19,02,32,8.10
2015,08,19,02,33,8.10
2015,08,19,02,34,9.60
2015,08,19,02,35,4.80
2015,08,19,02,36,6.40
2015,08,19,02,37,4.80
2015,08,19,02,38,4.80
2015,08,19,02,39,3.20
2015,08,19,02,40,4.80
2015,08,19,02,41,9.60
2015,08,19,02,42,8.10
2015,08,19,02,43,8.10
2015,08,19,02,44,4.80
2015,08,19,02,45,6.40
2015,08,19,02,46,3.20
2015,08,19,02,47,3.20
2015,08,19,02,48,3.20
2015,08,19,02,49,1.60
2015,08,19,02,50,3.20
2015,08,19,02,51,1.60
2015,08,19,02,52,3.20
2015,08,19,02,53,6.40
2015,08,19,02,54,3.20
2015,08,19,03,02,4.80
2015,08,19,03,03,3.20
2015,08,19,03,04,8.10
2015,08,19,03,05,8.10
2015,08,19,03,06,12.90
2015,08,19,03,07,12.90
2015,08,19,03,08,4.80
2015,08,19,03,09,8.10
2015,08,19,03,10,14.50
2015,08,19,03,11,9.60
2015,08,19,03,12,4.80
2015,08,19,03,13,9.60
2015,08,19,03,14,12.90
2015,08,19,03,15,14.50
2015,08,19,03,16,11.30
2015,08,19,03,17,6.40
2015,08,19,03,18,6.40
2015,08,19,03,19,12.90
2015,08,19,03,20,22.50
2015,08,19,03,21,19.30
2015,08,19,03,22,12.90
2015,08,19,03,23,12.90
2015,08,19,03,24,14.50
2015,08,19,03,25,14.50
2015,08,19,03,26,12.90
2015,08,19,03,27,12.90
2015,08,19,03,28,17.70
2015,08,19,03,29,11.30
2015,08,19,03,30,12.90
2015,08,19,03,31,12.90
2015,08,19,03,32,14.50
2015,08,19,03,33,12.90
2015,08,19,03,34,19.30
2015,08,19,03,35,19.30
2015,08,19,03,36,17.70
2015,08,19,03,37,16.10
2015,08,19,03,38,14.50
2015,08,19,03,39,19.30
2015,08,19,03,40,17.70
2015,08,19,03,41,22.50
2015,08,19,03,42,24.20
2015,08,19,03,43,17.70
2015,08,19,03,44,16.10
2015,08,19,03,45,12.90
2015,08,19,03,46,16.10
2015,08,19,03,47,19.30
2015,08,19,03,48,20.90
2015,08,19,03,49,20.90
2015,08,19,03,50,19.30
2015,08,19,03,51,20.90
2015,08,19,03,52,22.50
2015,08,19,03,53,16.10
2015,08,19,03,54,19.30
2015,08,19,03,55,20.90
2015,08,19,03,56,17.70
2015,08,19,03,57,17.70
2015,08,19,03,58,25.70
2015,08,19,03,59,17.70
2015,08,19,04,00,19.30
2015,08,19,04,01,24.20
2015,08,19,04,02,17.70
2015,08,19,05,02,19.30
2015,08,19,05,03,20.90
2015,08,19,05,04,14.50
2015,08,19,05,05,17.70
2015,08,19,05,06,19.30
2015,08,19,05,07,20.90
2015,08,19,05,08,19.30
2015,08,19,05,09,25.70
2015,08,19,05,10,22.50
2015,08,19,05,11,17.70
2015,08,19,05,12,17.70
2015,08,19,05,13,12.90
2015,08,19,05,14,12.90
2015,08,19,05,15,9.60
2015,08,19,05,16,16.10
2015,08,19,05,17,17.70
2015,08,19,05,18,12.90
2015,08,19,05,19,12.90
2015,08,19,05,20,12.90
2015,08,19,05,21,17.70
2015,08,19,05,22,16.10
2015,08,19,05,23,14.50
2015,08,19,05,24,9.60
2015,08,19,05,25,9.60
2015,08,19,05,26,16.10
2015,08,19,05,27,9.60
2015,08,19,05,28,11.30
2015,08,19,05,29,6.40
2015,08,19,05,30,8.10
2015,08,19,05,31,6.40
2015,08,19,05,32,6.40
2015,08,19,05,33,6.40
2015,08,19,05,34,4.80
2015,08,19,05,35,6.40
2015,08,19,05,36,6.40
2015,08,19,05,37,4.80
2015,08,19,05,38,6.40
2015,08,19,05,39,4.80
2015,08,19,05,40,4.80
2015,08,19,05,41,11.30
2015,08,19,05,42,9.60
2015,08,19,05,43,8.10
2015,08,19,05,44,14.50
2015,08,19,05,45,9.60
2015,08,19,05,46,19.30
2015,08,19,05,47,11.30
2015,08,19,05,48,6.40
2015,08,19,05,49,8.10
2015,08,19,05,50,8.10
2015,08,19,05,51,4.80
2015,08,19,05,52,8.10
2015,08,19,05,53,8.10
2015,08,19,05,54,12.90
2015,08,19,05,55,8.10
2015,08,19,05,56,9.60
2015,08,19,05,57,6.40
2015,08,19,05,58,3.20
2015,08,19,05,59,3.20
2015,08,19,06,00,8.10
2015,08,19,06,01,8.10
2015,08,19,06,02,4.80
2015,08,19,06,03,4.80
2015,08,19,06,04,6.40
2015,08,19,06,05,9.60
2015,08,19,06,06,6.40
2015,08,19,06,07,6.40
2015,08,19,06,08,3.20
2015,08,19,06,09,3.20
2015,08,19,06,10,3.20
2015,08,19,06,11,3.20
2015,08,19,06,12,4.80
2015,08,19,06,13,4.80
2015,08,19,06,14,4.80
2015,08,19,06,15,19.30
2015,08,19,06,16,16.10
2015,08,19,06,17,19.30
2015,08,19,06,18,17.70
2015,08,19,06,19,19.30
2015,08,19,06,20,20.90
2015,08,19,06,21,14.50
2015,08,19,06,22,19.30
2015,08,19,06,23,17.70
2015,08,19,06,24,19.30
2015,08,19,06,25,17.70
2015,08,19,06,26,19.30
2015,08,19,06,27,16.10
2015,08,19,06,28,19.30
2015,08,19,06,29,20.90
2015,08,19,06,30,14.50
2015,08,19,06,31,11.30
2015,08,19,06,32,12.90
2015,08,19,06,33,14.50
2015,08,19,06,34,12.90
2015,08,19,06,35,16.10
2015,08,19,06,36,14.50
2015,08,19,06,37,9.60
2015,08,19,06,38,12.90
2015,08,19,06,39,19.30
2015,08,19,06,40,14.50
2015,08,19,06,41,11.30
2015,08,19,06,42,12.90
2015,08,19,06,43,17.70
2015,08,19,06,44,17.70
2015,08,19,06,45,17.70
2015,08,19,06,46,17.70
2015,08,19,06,47,14.50
2015,08,19,06,48,16.10
2015,08,19,06,49,19.30
2015,08,19,06,50,11.30
2015,08,19,06,51,6.40
2015,08,19,06,52,6.40
2015,08,19,06,53,11.30
2015,08,19,06,54,11.30
2015,08,19,06,55,20.90
2015,08,19,06,56,20.90
2015,08,19,06,57,14.50
2015,08,19,06,58,14.50
2015,08,19,06,59,14.50
2015,08,19,07,00,11.30
2015,08,19,07,01,12.90
2015,08,19,07,02,11.30
2015,08,19,07,03,9.60
2015,08,19,07,04,19.30
2015,08,19,07,05,12.90
2015,08,19,07,06,9.60
2015,08,19,07,07,11.30
2015,08,19,07,08,6.40
2015,08,19,07,09,12.90
2015,08,19,07,10,14.50
2015,08,19,07,11,11.30
2015,08,19,07,12,17.70
2015,08,19,07,13,12.90
2015,08,19,07,14,6.40
2015,08,19,07,15,11.30
2015,08,19,07,16,16.10
2015,08,19,07,17,12.90
2015,08,19,07,18,17.70
2015,08,19,07,19,19.30
2015,08,19,07,20,16.10
2015,08,19,07,21,29.00
2015,08,19,07,22,29.00
2015,08,19,07,23,25.70
2015,08,19,07,24,22.50
2015,08,19,07,25,11.30
2015,08,19,07,26,11.30
2015,08,19,07,27,22.50
2015,08,19,07,28,24.20
2015,08,19,07,29,29.00
2015,08,19,07,30,19.30
2015,08,19,07,31,24.20
2015,08,19,07,32,29.00
2015,08,19,07,33,24.20
2015,08,19,07,34,20.90
2015,08,19,07,35,22.50
2015,08,19,07,36,20.90
2015,08,19,07,37,32.20
2015,08,19,07,38,27.40
2015,08,19,07,39,24.20
2015,08,19,07,40,29.00
2015,08,19,07,41,30.60
2015,08,19,07,42,24.20
2015,08,19,07,43,32.20
2015,08,19,07,44,29.00
2015,08,19,07,45,22.50
2015,08,19,07,46,30.60
2015,08,19,07,47,27.40
2015,08,19,07,48,24.20
2015,08,19,07,49,24.20
2015,08,19,07,50,24.20
2015,08,19,07,51,33.80
2015,08,19,07,52,19.30
2015,08,19,07,53,24.20
2015,08,19,07,54,20.90
2015,08,19,07,55,32.20
2015,08,19,07,56,24.20
2015,08,19,07,57,17.70
2015,08,19,07,58,32.20
2015,08,19,07,59,14.50
2015,08,19,08,00,25.70
2015,08,19,08,01,30.60
2015,08,19,08,02,22.50
2015,08,19,08,03,14.50
2015,08,19,08,04,19.30
2015,08,19,08,05,20.90
2015,08,19,08,06,14.50
2015,08,19,08,07,25.70
2015,08,19,08,08,16.10
2015,08,19,08,09,20.90
2015,08,19,08,10,16.10
2015,08,19,08,11,19.30
2015,08,19,08,12,12.90
2015,08,19,08,13,12.90
2015,08,19,08,14,24.20
2015,08,19,08,15,17.70
2015,08,19,08,16,19.30
2015,08,19,08,17,19.30
2015,08,19,08,18,11.30
2015,08,19,08,19,16.10
2015,08,19,08,20,27.40
2015,08,19,08,21,17.70
2015,08,19,08,22,22.50
2015,08,19,08,23,17.70
2015,08,19,08,24,17.70
2015,08,19,08,25,17.70
2015,08,19,08,26,14.50
2015,08,19,08,27,16.10
2015,08,19,08,28,12.90
2015,08,19,08,29,12.90
2015,08,19,08,30,14.50
2015,08,19,08,31,16.10
2015,08,19,08,32,14.50
2015,08,19,08,33,14.50
2015,08,19,08,34,16.10
2015,08,19,08,35,17.70
2015,08,19,08,36,19.30
2015,08,19,08,37,12.90
2015,08,19,08,38,8.10
2015,08,19,08,39,17.70
2015,08,19,08,40,17.70
2015,08,19,08,41,19.30
2015,08,19,08,42,14.50
2015,08,19,08,43,14.50
2015,08,19,08,44,14.50
2015,08,19,08,45,12.90
2015,08,19,08,46,14.50
2015,08,19,08,47,16.10
2015,08,19,08,48,12.90
2015,08,19,08,49,16.10
2015,08,19,08,50,11.30
2015,08,19,08,51,11.30
2015,08,19,08,52,17.70
2015,08,19,08,53,17.70
2015,08,19,08,54,19.30
2015,08,19,08,55,17.70
2015,08,19,08,56,19.30
2015,08,19,08,57,17.70
2015,08,19,08,58,16.10
2015,08,19,08,59,14.50
2015,08,19,09,00,16.10
2015,08,19,09,01,17.70
2015,08,19,09,02,14.50
2015,08,19,09,03,16.10
2015,08,19,09,04,16.10
2015,08,19,09,05,20.90
2015,08,19,09,06,19.30
2015,08,19,09,07,20.90
2015,08,19,09,08,22.50
2015,08,19,09,09,17.70
2015,08,19,09,10,20.90
2015,08,19,09,11,20.90
2015,08,19,09,12,29.00
2015,08,19,09,13,32.20
2015,08,19,09,14,20.90
2015,08,19,09,15,16.10
2015,08,19,09,16,29.00
2015,08,19,09,17,24.20
2015,08,19,09,18,22.50
2015,08,19,09,19,16.10
2015,08,19,09,20,22.50
2015,08,19,09,21,24.20
2015,08,19,09,22,25.70
2015,08,19,09,23,29.00
2015,08,19,09,24,16.10
2015,08,19,09,25,16.10
2015,08,19,09,26,30.60
2015,08,19,09,27,22.50
2015,08,19,09,28,22.50
2015,08,19,09,29,17.70
2015,08,19,09,30,35.40
2015,08,19,09,31,20.90
2015,08,19,09,32,25.70
2015,08,19,09,33,32.20
2015,08,19,09,34,30.60
2015,08,19,09,35,38.60
2015,08,19,09,36,32.20
2015,08,19,09,37,20.90
2015,08,19,09,38,24.20
2015,08,19,09,39,20.90
2015,08,19,09,40,32.20
2015,08,19,09,41,27.40
2015,08,19,09,42,22.50
2015,08,19,09,43,27.40
2015,08,19,09,44,24.20
2015,08,19,09,45,35.40
2015,08,19,09,46,29.00
2015,08,19,09,47,32.20
2015,08,19,09,48,35.40
2015,08,19,09,49,20.90
2015,08,19,09,50,24.20
2015,08,19,09,51,14.50
2015,08,19,09,52,19.30
2015,08,19,09,53,22.50
2015,08,19,09,54,25.70
2015,08,19,09,55,29.00
2015,08,19,09,56,25.70
2015,08,19,09,57,22.50
2015,08,19,09,58,27.40
2015,08,19,09,59,17.70
2015,08,19,10,00,20.90
2015,08,19,10,01,27.40
2015,08,19,10,02,17.70
2015,08,19,10,03,22.50
2015,08,19,10,04,22.50
2015,08,19,10,05,16.10
2015,08,19,10,06,16.10
2015,08,19,10,07,14.50
2015,08,19,10,08,16.10
2015,08,19,10,09,16.10
2015,08,19,10,10,19.30
2015,08,19,10,11,14.50
2015,08,19,10,12,9.60
2015,08,19,10,13,14.50
2015,08,19,10,14,16.10
2015,08,19,10,15,19.30
2015,08,19,10,16,19.30
2015,08,19,10,17,20.90
2015,08,19,10,18,17.70
2015,08,19,10,19,20.90
2015,08,19,10,20,24.20
2015,08,19,10,21,17.70
2015,08,19,10,22,16.10
2015,08,19,10,23,12.90
2015,08,19,10,24,12.90
2015,08,19,10,25,16.10
2015,08,19,10,26,12.90
2015,08,19,10,27,11.30
2015,08,19,10,28,22.50
2015,08,19,10,29,22.50
2015,08,19,10,30,17.70
2015,08,19,10,31,12.90
2015,08,19,10,32,17.70
2015,08,19,10,33,16.10
2015,08,19,10,34,24.20
2015,08,19,10,35,16.10
2015,08,19,10,36,20.90
2015,08,19,10,37,19.30
2015,08,19,10,38,25.70
2015,08,19,10,39,19.30
2015,08,19,10,40,20.90
2015,08,19,10,41,24.20
2015,08,19,10,42,20.90
2015,08,19,10,43,16.10
2015,08,19,10,44,16.10
2015,08,19,10,45,19.30
2015,08,19,10,46,22.50
2015,08,19,10,47,30.60
2015,08,19,10,48,22.50
2015,08,19,10,49,20.90
2015,08,19,10,50,22.50
2015,08,19,10,51,22.50
2015,08,19,10,52,25.70
2015,08,19,10,53,22.50
2015,08,19,10,54,25.70
2015,08,19,10,55,24.20
2015,08,19,10,56,24.20
2015,08,19,10,57,22.50
2015,08,19,10,58,20.90
2015,08,19,10,59,20.90
2015,08,19,11,00,22.50
2015,08,19,11,01,19.30
2015,08,19,11,02,29.00
2015,08,19,11,03,25.70
2015,08,19,11,04,29.00
2015,08,19,11,05,29.00
2015,08,19,11,06,32.20
2015,08,19,11,07,30.60
2015,08,19,11,08,25.70
2015,08,19,11,09,22.50
2015,08,19,11,10,27.40
2015,08,19,11,11,33.80
2015,08,19,11,12,33.80
2015,08,19,11,13,37.00
2015,08,19,11,14,32.20
2015,08,19,11,15,27.40
2015,08,19,11,16,35.40
2015,08,19,11,17,29.00
2015,08,19,11,18,29.00
2015,08,19,11,19,27.40
2015,08,19,11,20,32.20
2015,08,19,11,21,24.20
2015,08,19,11,22,24.20
2015,08,19,11,23,32.20
2015,08,19,11,24,27.40
2015,08,19,11,25,32.20
2015,08,19,11,26,37.00
2015,08,19,11,27,30.60
2015,08,19,11,28,29.00
2015,08,19,11,29,38.60
2015,08,19,11,30,35.40
2015,08,19,11,31,32.20
2015,08,19,11,32,29.00
2015,08,19,11,33,27.40
2015,08,19,11,34,22.50
2015,08,19,11,35,24.20
2015,08,19,11,36,29.00
2015,08,19,11,37,37.00
2015,08,19,11,38,25.70
2015,08,19,11,39,33.80
2015,08,19,11,40,25.70
2015,08,19,11,41,30.60
2015,08,19,11,42,35.40
2015,08,19,11,43,33.80
2015,08,19,11,44,29.00
2015,08,19,11,45,29.00
2015,08,19,11,46,32.20
2015,08,19,11,47,30.60
2015,08,19,11,48,25.70
2015,08,19,11,49,30.60
2015,08,19,11,50,32.20
2015,08,19,11,51,33.80
2015,08,19,11,52,29.00
2015,08,19,11,53,32.20
2015,08,19,11,54,35.40
2015,08,19,11,55,37.00
2015,08,19,11,56,35.40
2015,08,19,11,57,29.00
2015,08,19,11,58,30.60
2015,08,19,11,59,30.60
2015,08,19,12,00,30.60
2015,08,19,12,01,37.00
2015,08,19,12,02,27.40
2015,08,19,12,03,37.00
2015,08,19,12,04,24.20
2015,08,19,12,05,25.70
2015,08,19,12,06,22.50
2015,08,19,12,07,22.50
2015,08,19,12,08,30.60
2015,08,19,12,09,29.00
2015,08,19,12,10,22.50
2015,08,19,12,11,24.20
2015,08,19,12,12,27.40
2015,08,19,12,13,29.00
2015,08,19,12,14,19.30
2015,08,19,12,15,27.40
2015,08,19,12,16,25.70
2015,08,19,12,17,25.70
2015,08,19,12,18,25.70
2015,08,19,12,19,32.20
2015,08,19,12,20,32.20
2015,08,19,12,21,24.20
2015,08,19,12,22,19.30
2015,08,19,12,23,35.40
2015,08,19,12,24,30.60
2015,08,19,12,25,25.70
2015,08,19,12,26,27.40
2015,08,19,12,27,24.20
2015,08,19,12,28,29.00
2015,08,19,12,29,19.30
2015,08,19,12,30,19.30
2015,08,19,12,31,20.90
2015,08,19,12,32,29.00
2015,08,19,12,33,22.50
2015,08,19,12,34,16.10
2015,08,19,12,35,32.20
2015,08,19,12,36,33.80
2015,08,19,12,37,25.70
2015,08,19,12,38,22.50
2015,08,19,12,39,17.70
2015,08,19,12,40,19.30
2015,08,19,12,41,22.50
2015,08,19,12,42,27.40
2015,08,19,12,43,25.70
2015,08,19,12,44,24.20
2015,08,19,12,45,29.00
2015,08,19,12,46,29.00
2015,08,19,12,47,22.50
2015,08,19,12,48,29.00
2015,08,19,12,49,32.20
2015,08,19,12,50,25.70
2015,08,19,12,51,30.60
2015,08,19,12,52,24.20
2015,08,19,12,53,22.50
2015,08,19,12,54,22.50
2015,08,19,12,55,25.70
2015,08,19,12,56,20.90
2015,08,19,12,57,30.60
2015,08,19,12,58,22.50
2015,08,19,12,59,25.70
2015,08,19,13,00,24.20
2015,08,19,13,01,27.40
2015,08,19,13,02,29.00
2015,08,19,13,03,14.50
2015,08,19,13,04,30.60
2015,08,19,13,05,30.60
2015,08,19,13,06,22.50
2015,08,19,13,07,45.10
2015,08,19,13,08,32.20
2015,08,19,13,09,29.00
2015,08,19,13,10,24.20
2015,08,19,13,11,25.70
2015,08,19,13,12,35.40
2015,08,19,13,13,35.40
2015,08,19,13,14,33.80
2015,08,19,13,15,30.60
2015,08,19,13,16,20.90
2015,08,19,13,17,29.00
2015,08,19,13,18,25.70
2015,08,19,13,19,29.00
2015,08,19,13,20,29.00
2015,08,19,13,21,24.20
2015,08,19,13,22,33.80
2015,08,19,13,23,33.80
2015,08,19,13,24,30.60
2015,08,19,13,25,35.40
2015,08,19,13,26,24.20
2015,08,19,13,27,20.90
2015,08,19,13,28,29.00
2015,08,19,13,29,32.20
2015,08,19,13,30,37.00
2015,08,19,13,31,35.40
2015,08,19,13,32,25.70
2015,08,19,13,33,25.70
2015,08,19,13,34,25.70
2015,08,19,13,35,19.30
2015,08,19,13,36,25.70
2015,08,19,13,37,25.70
2015,08,19,13,38,20.90
2015,08,19,13,39,29.00
2015,08,19,13,40,27.40
2015,08,19,13,41,32.20
2015,08,19,13,42,32.20
2015,08,19,13,43,30.60
2015,08,19,13,44,35.40
2015,08,19,13,45,20.90
2015,08,19,13,46,33.80
2015,08,19,13,47,35.40
2015,08,19,13,48,30.60
2015,08,19,13,49,27.40
2015,08,19,13,50,25.70
2015,08,19,13,51,27.40
2015,08,19,13,52,27.40
2015,08,19,13,53,33.80
2015,08,19,13,54,25.70
2015,08,19,13,55,22.50
2015,08,19,13,56,19.30
2015,08,19,13,57,22.50
2015,08,19,13,58,37.00
2015,08,19,13,59,24.20
2015,08,19,14,00,24.20
2015,08,19,14,01,24.20
2015,08,19,14,02,32.20
2015,08,19,14,03,25.70
2015,08,19,14,04,29.00
2015,08,19,14,05,27.40
2015,08,19,14,06,20.90
2015,08,19,14,07,25.70
2015,08,19,14,08,29.00
2015,08,19,14,09,38.60
2015,08,19,14,10,37.00
2015,08,19,14,11,32.20
2015,08,19,14,12,27.40
2015,08,19,14,13,30.60
2015,08,19,14,14,24.20
2015,08,19,14,15,20.90
2015,08,19,14,16,33.80
2015,08,19,14,17,33.80
2015,08,19,14,18,22.50
2015,08,19,14,19,30.60
2015,08,19,14,20,33.80
2015,08,19,14,21,40.20
2015,08,19,14,22,32.20
2015,08,19,14,23,19.30
2015,08,19,14,24,33.80
2015,08,19,14,25,25.70
2015,08,19,14,26,29.00
2015,08,19,14,27,33.80
2015,08,19,14,28,30.60
2015,08,19,14,29,35.40
2015,08,19,14,30,27.40
2015,08,19,14,31,19.30
2015,08,19,14,32,27.40
2015,08,19,14,33,16.10
2015,08,19,14,34,17.70
2015,08,19,14,35,20.90
2015,08,19,14,36,17.70
2015,08,19,14,37,27.40
2015,08,19,14,38,37.00
2015,08,19,14,39,29.00
2015,08,19,14,40,45.10
2015,08,19,14,41,40.20
2015,08,19,14,42,32.20
2015,08,19,14,43,37.00
2015,08,19,14,44,27.40
2015,08,19,14,45,32.20
2015,08,19,14,46,37.00
2015,08,19,14,47,43.50
2015,08,19,14,48,29.00
2015,08,19,14,49,38.60
2015,08,19,14,50,33.80
2015,08,19,14,51,40.20
2015,08,19,14,52,35.40
2015,08,19,14,53,35.40
2015,08,19,14,54,43.50
2015,08,19,14,55,38.60
2015,08,19,14,56,27.40
2015,08,19,14,57,30.60
2015,08,19,14,58,35.40
2015,08,19,14,59,41.80
2015,08,19,15,00,33.80
2015,08,19,15,01,30.60
2015,08,19,15,02,51.50
2015,08,19,15,03,33.80
2015,08,19,15,04,29.00
2015,08,19,15,05,33.80
2015,08,19,15,06,33.80
2015,08,19,15,07,33.80
2015,08,19,15,08,40.20
2015,08,19,15,09,32.20
2015,08,19,15,10,32.20
2015,08,19,15,11,37.00
2015,08,19,15,12,40.20
2015,08,19,15,13,38.60
2015,08,19,15,14,41.80
2015,08,19,15,15,29.00
2015,08,19,15,16,38.60
2015,08,19,15,17,35.40
2015,08,19,15,18,40.20
2015,08,19,15,19,27.40
2015,08,19,15,20,20.90
2015,08,19,15,21,37.00
2015,08,19,15,22,29.00
2015,08,19,15,23,46.70
2015,08,19,15,24,45.10
2015,08,19,15,25,37.00
2015,08,19,15,26,29.00
2015,08,19,15,27,30.60
2015,08,19,15,28,32.20
2015,08,19,15,29,41.80
2015,08,19,15,30,45.10
2015,08,19,15,31,32.20
2015,08,19,15,32,46.70
2015,08,19,15,33,33.80
2015,08,19,15,34,41.80
2015,08,19,15,35,33.80
2015,08,19,15,36,35.40
2015,08,19,15,37,29.00
2015,08,19,15,38,37.00
2015,08,19,15,39,37.00
2015,08,19,15,40,37.00
2015,08,19,15,41,32.20
2015,08,19,15,42,33.80
2015,08,19,15,43,24.20
2015,08,19,15,44,30.60
2015,08,19,15,45,40.20
2015,08,19,15,46,38.60
2015,08,19,15,47,35.40
2015,08,19,15,48,35.40
2015,08,19,15,49,32.20
2015,08,19,15,50,37.00
2015,08,19,15,51,30.60
2015,08,19,15,52,35.40
2015,08,19,15,53,37.00
2015,08,19,15,54,38.60
2015,08,19,15,55,40.20
2015,08,19,15,56,30.60
2015,08,19,15,57,38.60
2015,08,19,15,58,38.60
2015,08,19,15,59,30.60
2015,08,19,16,00,32.20
2015,08,19,16,01,35.40
2015,08,19,16,02,38.60
2015,08,19,16,03,30.60
2015,08,19,16,04,27.40
2015,08,19,16,05,37.00
2015,08,19,16,06,40.20
2015,08,19,16,07,29.00
2015,08,19,16,08,29.00
2015,08,19,16,09,20.90
2015,08,19,16,10,32.20
2015,08,19,16,11,37.00
2015,08,19,16,12,25.70
2015,08,19,16,13,37.00
2015,08,19,16,14,37.00
2015,08,19,16,15,32.20
2015,08,19,16,16,25.70
2015,08,19,16,17,25.70
2015,08,19,16,18,27.40
2015,08,19,16,19,27.40
2015,08,19,16,20,27.40
2015,08,19,16,21,37.00
2015,08,19,16,22,35.40
2015,08,19,16,23,30.60
2015,08,19,16,24,24.20
2015,08,19,16,25,40.20
2015,08,19,16,26,29.00
2015,08,19,16,27,41.80
2015,08,19,16,28,27.40
2015,08,19,16,29,29.00
2015,08,19,16,30,35.40
2015,08,19,16,31,27.40
2015,08,19,16,32,32.20
2015,08,19,16,33,33.80
2015,08,19,16,34,32.20
2015,08,19,16,35,35.40
2015,08,19,16,36,33.80
2015,08,19,16,37,30.60
2015,08,19,16,38,32.20
2015,08,19,16,39,22.50
2015,08,19,16,40,35.40
2015,08,19,16,41,29.00
2015,08,19,16,42,20.90
2015,08,19,16,43,35.40
2015,08,19,16,44,40.20
2015,08,19,16,45,33.80
2015,08,19,16,46,38.60
2015,08,19,16,47,30.60
2015,08,19,16,48,37.00
2015,08,19,16,49,30.60
2015,08,19,16,50,33.80
2015,08,19,16,51,40.20
2015,08,19,16,52,53.10
2015,08,19,16,53,45.10
2015,08,19,16,54,29.00
2015,08,19,16,55,37.00
2015,08,19,16,56,35.40
2015,08,19,16,57,38.60
2015,08,19,16,58,41.80
2015,08,19,16,59,48.30
2015,08,19,17,00,37.00
2015,08,19,17,01,35.40
2015,08,19,17,02,24.20
2015,08,19,17,03,35.40
2015,08,19,17,04,37.00
2015,08,19,17,05,32.20
2015,08,19,17,06,27.40
2015,08,19,17,07,37.00
2015,08,19,17,08,41.80
2015,08,19,17,09,45.10
2015,08,19,17,10,30.60
2015,08,19,17,11,22.50
2015,08,19,17,12,38.60
2015,08,19,17,13,40.20
2015,08,19,17,14,24.20
2015,08,19,17,15,33.80
2015,08,19,17,16,25.70
2015,08,19,17,17,29.00
2015,08,19,17,18,30.60
2015,08,19,17,19,37.00
2015,08,19,17,20,46.70
2015,08,19,17,21,40.20
2015,08,19,17,22,30.60
2015,08,19,17,23,35.40
2015,08,19,17,24,33.80
2015,08,19,17,25,45.10
2015,08,19,17,26,35.40
2015,08,19,17,27,25.70
2015,08,19,17,28,53.10
2015,08,19,17,29,41.80
2015,08,19,17,30,40.20
2015,08,19,17,31,37.00
2015,08,19,17,32,40.20
2015,08,19,17,33,48.30
2015,08,19,17,34,33.80
2015,08,19,17,35,30.60
2015,08,19,17,36,29.00
2015,08,19,17,37,40.20
2015,08,19,17,38,33.80
2015,08,19,17,39,27.40
2015,08,19,17,40,27.40
2015,08,19,17,41,30.60
2015,08,19,17,42,25.70
2015,08,19,17,43,33.80
2015,08,19,17,44,37.00
2015,08,19,17,45,27.40
2015,08,19,17,46,30.60
2015,08,19,17,47,35.40
2015,08,19,17,48,37.00
2015,08,19,17,49,35.40
2015,08,19,17,50,40.20
2015,08,19,17,51,25.70
2015,08,19,17,52,29.00
2015,08,19,17,53,33.80
2015,08,19,17,54,40.20
2015,08,19,17,55,32.20
2015,08,19,17,56,24.20
2015,08,19,17,57,29.00
2015,08,19,17,58,29.00
2015,08,19,17,59,24.20
2015,08,19,18,00,20.90
2015,08,19,18,01,19.30
2015,08,19,18,02,30.60
2015,08,19,18,03,30.60
2015,08,19,18,04,27.40
2015,08,19,18,05,32.20
2015,08,19,18,06,38.60
2015,08,19,18,07,35.40
2015,08,19,18,08,25.70
2015,08,19,18,09,22.50
2015,08,19,18,10,35.40
2015,08,19,18,11,29.00
2015,08,19,18,12,24.20
2015,08,19,18,13,25.70
2015,08,19,18,14,25.70
2015,08,19,18,15,30.60
2015,08,19,18,16,30.60
2015,08,19,18,17,29.00
2015,08,19,18,18,30.60
2015,08,19,18,19,24.20
2015,08,19,18,20,25.70
2015,08,19,18,21,27.40
2015,08,19,18,22,32.20
2015,08,19,18,23,30.60
2015,08,19,18,24,24.20
2015,08,19,18,25,32.20
2015,08,19,18,26,24.20
2015,08,19,18,27,19.30
2015,08,19,18,28,30.60
2015,08,19,18,29,29.00
2015,08,19,18,30,24.20